User: anonymous   Login
Location: Pine Mountain Observatory
(43.7910°N, 120.9377°W)
Time: 18:59:59
(UTC-07:00)
Language:

Meteor 2-19 Rocket - Orbit

View from above orbital plane
View from above orbital plane
View from above satellite
View from above satellite

Ground track
Ground track

The orbit data is extracted from the following two-line orbital elements,

1 20671U 90057B   16183.83781941  .00000006  00000-0 -77109-5 0  9993
2 20671  82.5483 290.5905 0014416 217.1650 259.1331 13.84601737314581
Epoch (UTC): 01 July 2016 20:06:27
Eccentricity: 0.0014416
inclination: 82.5483°
perigee height: 937 km
apogee height: 958 km
right ascension of ascending node: 290.5905°
argument of perigee: 217.1650°
revolutions per day: 13.84601737
mean anomaly at epoch: 259.1331°
orbit number at epoch: 31458

The dashed part of the orbit path shows where the satellite is in the earth's shadow,  

DLR